Temperature
19 19 19 19 19 19 19 18 18 18 18 18 18 18 18 18 18 18 18 18 18 18 18 18 18 18 18 18 17 17 17 17 17 17 17 17 17 17 17 17 17 16 16
19 19 19 19 19 19 19 19 19 18 18 18 18 18 18 18 18 18 18 18 18 18 18 18 18 18 18 17 17 17 17 17 17 17 17 17 17 17 16 16 16 16 16
19 19 19 19 19 19 19 19 18 18 18 18 18 18 18 18 18 18 18 18 18 18 18 18 18 18 18 17 17 17 17 17 17 17 17 17 17 17 16 16 16 16 16
19 19 19 19 19 19 19 19 19 18 18 18 18 18 18 18 18 18 18 18 18 18 18 18 18 18 18 18 17 17 17 17 17 17 17 17 16 16 16 16 16 16 16
19 19 19 19 19 19 19 19 19 18 18 18 18 18 18 18 18 18 18 18 18 18 18 18 18 18 18 17 17 17 17 17 17 17 17 16 16 16 16 16 16 16 16
19 19 19 19 19 18 19 19 19 19 19 19 19 19 19 19 19 18 18 18 18 18 18 18 18 17 17 17 17 17 17 17 17 17 17 16 16 16 16 16 16 16 16
19 19 19 19 19 18 18 18 18 18 19 19 19 19 19 19 19 19 18 18 18 18 18 18 18 17 17 17 17 17 17 17 17 17 17 16 16 16 16 16 16 16 16
19 19 19 19 19 18 18 18 18 18 18 18 19 19 19 19 19 19 19 18 18 18 18 18 18 17 17 17 17 17 17 17 17 17 17 17 16 16 16 16 16 16 16
19 19 19 18 18 18 18 18 18 18 18 18 18 19 18 18 18 19 19 18 18 18 18 18 18 17 17 17 17 17 17 17 17 17 17 17 17 16 16 16 16 16 16
19 19 19 19 18 18 18 18 18 18 18 18 18 19 19 19 19 18 18 18 18 18 18 18 18 18 17 17 17 17 17 17 17 17 17 16 16 16 16 16 16 16 16
19 19 19 19 18 18 18 18 18 18 18 18 18 19 19 19 19 19 18 18 18 18 18 18 18 18 17 17 17 17 17 17 17 16 16 16 16 16 16 16 16 16 16
19 19 18 18 18 18 18 18 18 18 18 18 18 18 18 18 19 19 19 19 18 18 18 18 18 18 17 17 17 17 17 17 17 16 16 16 16 16 16 16 16 16 16
19 19 18 18 18 18 18 18 18 18 18 18 18 18 18 18 18 19 19 19 18 18 18 18 18 18 17 17 17 17 16 16 16 16 16 16 16 16 16 16 16 16 16
19 19 18 18 18 18 18 18 18 18 18 18 18 18 18 18 18 18 18 18 18 18 18 18 18 18 17 17 17 17 16 16 16 16 16 16 16 16 16 16 16 16 16
19 18 18 18 18 18 18 18 18 18 18 18 18 18 18 18 18 18 18 18 18 18 18 18 18 17 17 17 17 16 16 16 16 16 16 16 16 15 15 15 15 15 15
19 18 18 18 18 18 18 18 17 17 17 17 17 17 18 18 18 17 18 18 18 18 17 18 17 17 17 17 16 16 16 16 16 16 16 16 15 15 15 15 15 15 15
18 18 18 18 18 18 18 18 17 17 17 17 17 17 17 17 17 17 17 17 17 17 17 17 17 17 17 17 16 16 16 16 16 16 16 16 15 15 15 15 15 15 15
18 18 18 18 18 18 18 18 17 17 17 17 17 17 17 17 17 17 17 17 17 17 17 17 17 17 17 16 16 16 16 16 16 16 16 16 15 15 15 15 15 15 15
18 18 18 18 18 18 18 18 17 17 17 17 17 17 17 17 17 17 17 17 17 17 17 17 17 17 16 16 16 16 16 16 16 16 16 16 15 15 15 15 15 15 15
18 18 18 18 18 18 18 18 18 17 17 17 17 17 17 17 17 17 17 17 17 17 16 16 16 16 16 16 16 16 16 16 15 15 15 15 15 15 15 15 15 14 14
18 18 18 18 18 18 18 18 18 17 17 17 17 17 17 17 17 17 16 16 16 16 16 16 16 16 16 16 16 15 15 15 15 15 15 15 15 15 15 15 14 14 14
18 18 18 18 18 17 18 17 17 17 17 17 17 17 17 17 17 17 17 16 16 16 16 16 16 16 16 15 15 15 15 15 15 15 15 15 15 15 14 14 14 14 14
18 18 18 17 17 18 18 17 17 17 17 17 16 16 16 16 16 16 16 16 16 16 16 16 15 15 15 15 15 15 15 15 15 15 15 15 15 14 14 14 14 14 14
18 18 18 17 17 18 18 18 17 17 16 16 16 16 16 16 16 16 16 16 16 16 16 16 15 15 15 15 15 15 14 14 14 15 15 14 14 14 14 14 14 14 14
18 18 17 17 17 18 18 17 17 17 16 16 16 16 16 16 16 16 16 16 16 16 16 15 15 15 15 15 15 15 14 14 14 14 14 14 14 14 14 14 14 14 14
17 17 17 17 17 17 18 17 17 17 16 16 16 16 16 16 16 16 16 15 15 15 15 15 15 15 15 15 14 14 14 14 14 13 14 13 13 13 13 13 13 13 13
Wind_Speed
2 3 3 3 3 4 4 3 2 3 3 2 1 2 1 3 6 7 9 12 11 10 9 9 8 7 7 6 6 6 6 5 5 5 6 6 6 7 7 8 8 8 8
3 2 2 1 1 2 3 3 2 3 2 2 2 2 2 3 5 7 9 10 10 10 10 9 8 7 7 7 6 6 6 6 5 5 6 7 7 7 8 8 8 8 8
3 2 2 2 1 2 3 3 3 3 3 2 3 2 2 2 3 5 8 10 9 9 9 9 8 8 7 7 7 6 5 5 5 6 7 7 8 8 8 8 8 8 8
3 1 2 2 2 2 2 2 3 2 2 2 2 2 2 2 3 4 6 8 10 9 10 10 9 9 8 7 7 6 5 5 5 5 6 7 8 9 9 8 9 9 9
3 2 2 2 2 1 1 1 2 2 2 2 2 3 3 3 3 4 3 5 7 9 11 11 10 10 9 9 8 6 6 5 5 5 5 5 6 8 9 9 10 10 11
3 2 3 2 1 2 2 2 2 1 1 1 2 2 2 3 3 3 3 4 6 8 10 11 11 9 10 9 8 7 6 5 5 6 6 5 5 6 7 9 10 11 11
3 1 1 2 1 2 3 2 1 0 1 0 0 1 1 3 3 3 2 2 3 4 7 10 10 9 9 10 8 7 6 5 5 6 5 5 5 5 6 7 9 10 11
3 2 2 2 2 2 2 1 1 0 1 1 0 1 1 0 1 3 3 3 3 2 2 5 8 9 9 9 8 8 6 6 5 5 5 4 4 4 5 5 5 6 8
2 2 3 2 2 2 2 1 1 1 0 1 0 1 1 1 0 0 1 2 2 1 1 3 4 5 7 9 8 7 7 6 5 5 5 5 4 4 5 5 5 6 6
2 3 3 2 1 2 2 1 2 0 1 1 1 1 1 1 0 0 1 1 2 2 1 1 2 3 5 6 7 7 7 6 5 5 5 5 5 5 5 5 5 5 6
3 3 3 2 2 2 2 1 1 0 1 1 1 1 0 1 2 1 1 1 2 2 2 2 1 3 5 6 6 5 7 7 6 5 5 5 4 4 5 5 5 5 5
3 4 4 3 2 2 2 2 1 1 1 1 2 2 1 1 1 1 1 2 2 2 3 2 2 2 4 6 6 7 7 7 6 5 5 5 5 4 4 4 4 4 5
4 4 4 3 2 2 2 2 2 1 1 1 2 2 2 2 1 1 1 1 1 1 2 2 2 2 3 7 8 7 7 8 8 7 6 5 5 4 4 4 4 4 4
4 5 5 4 4 3 3 3 3 3 2 2 3 2 2 3 2 2 1 1 1 1 1 1 1 1 2 6 8 8 6 10 10 9 8 6 5 4 4 4 4 4 4
4 6 6 5 4 3 2 3 2 2 2 3 2 2 3 3 2 2 1 1 1 2 2 1 0 1 2 5 7 7 6 9 11 11 9 8 6 5 5 5 5 4 4
4 5 6 6 5 4 3 3 3 3 3 2 2 1 2 3 3 2 2 2 1 2 2 1 1 1 1 2 5 5 6 8 11 12 11 10 9 8 7 6 6 5 5
5 5 6 6 5 5 4 4 4 3 4 3 3 2 2 2 2 3 2 2 2 2 2 2 1 1 2 2 2 4 6 7 9 12 13 12 11 10 8 7 6 5 5
6 5 5 5 5 5 5 4 5 4 4 4 4 3 3 3 2 3 3 3 2 2 2 3 2 1 3 3 3 4 5 6 6 10 13 13 12 11 9 8 7 6 6
6 6 5 5 5 5 5 5 5 4 4 4 4 3 3 3 3 2 3 3 3 3 2 2 3 2 2 2 2 3 4 2 4 7 11 13 13 12 10 10 8 7 6
6 6 5 5 5 5 5 5 5 5 5 4 3 3 3 3 3 3 3 3 3 3 3 3 3 2 1 2 1 2 3 2 2 3 5 9 12 13 12 10 10 8 7
7 6 5 5 5 5 5 5 5 6 5 5 4 4 4 3 3 3 3 2 3 3 3 3 3 2 2 1 2 2 3 2 2 2 2 4 6 7 8 10 11 10 9
6 5 6 5 6 6 5 6 5 5 5 5 5 4 4 4 4 5 4 4 4 4 4 3 3 3 2 2 2 3 3 2 3 2 2 3 3 4 6 8 10 12 11
6 5 6 6 6 5 5 5 5 5 5 5 5 4 5 4 3 2 4 5 6 7 7 5 5 5 4 2 2 3 3 3 4 3 2 3 2 3 3 7 11 12 11
6 6 6 6 6 6 6 6 6 5 5 5 4 4 4 2 3 3 4 4 5 4 5 5 4 5 4 3 3 4 4 4 4 3 2 3 2 2 2 5 10 13 13
6 6 6 6 6 5 7 7 7 5 5 5 5 5 4 3 4 3 3 4 5 4 4 4 5 5 6 6 4 3 3 3 4 3 1 2 2 2 2 2 7 11 12
6 6 6 6 6 6 8 9 8 5 5 4 4 5 5 5 4 4 3 4 5 4 3 4 4 6 6 6 7 5 4 3 4 2 1 1 2 1 2 2 2 5 7
Wind_Direction
126 121 128 157 160 152 144 136 146 130 126 135 144 125 118 110 121 124 133 148 149 151 156 160 164 169 173 179 180 182 189 193 201 213 218 220 222 226 227 223 224 226 227
107 112 130 121 118 135 129 148 151 138 133 154 153 138 148 129 136 132 138 148 155 156 158 161 165 169 176 180 182 185 196 204 210 220 222 223 223 226 228 226 226 230 233
117 132 142 137 131 158 149 150 146 145 155 162 158 160 154 137 133 141 151 158 158 161 164 167 169 172 176 182 188 194 200 209 219 228 230 230 227 228 228 229 229 232 236
125 132 125 123 162 177 159 154 160 153 151 170 170 167 153 160 164 162 170 161 162 167 171 176 175 177 181 185 189 195 204 213 221 228 235 234 231 231 230 230 232 235 237
133 125 119 117 202 169 134 135 116 132 148 177 175 176 173 172 176 177 166 167 166 163 167 177 182 185 188 191 194 199 209 217 220 225 235 236 233 234 235 234 236 237 237
128 117 146 143 168 104 71 57 75 106 161 207 206 167 169 175 168 156 172 167 165 172 169 170 179 191 196 194 197 200 208 218 218 218 229 235 238 241 243 239 237 238 239
134 128 117 132 97 91 78 67 62 116 203 160 93 154 183 164 169 172 179 174 171 162 171 169 171 173 183 196 202 201 205 215 215 216 224 230 239 245 246 243 239 240 241
146 144 127 154 120 114 102 102 110 106 290 99 172 172 107 43 253 188 168 179 167 169 170 159 166 172 171 166 185 194 203 211 213 213 217 226 235 244 249 246 246 248 247
136 97 121 125 130 133 133 161 137 181 266 276 131 104 133 167 160 142 190 144 157 162 163 145 148 159 161 154 160 181 196 205 210 215 223 227 232 244 246 244 248 250 254
145 131 123 119 131 120 139 184 124 269 231 265 239 187 133 100 145 142 266 151 180 182 154 157 124 142 139 139 143 156 178 190 204 217 227 231 236 244 246 246 253 257 259
169 150 132 132 139 138 134 116 108 26 293 312 312 283 201 184 241 191 198 207 213 177 167 182 172 147 148 143 136 152 170 181 193 206 220 230 241 251 256 254 257 265 270
173 168 157 151 153 145 136 145 165 181 264 353 333 322 325 306 277 260 225 217 201 198 191 185 206 173 159 140 147 157 171 176 187 203 218 227 238 250 261 260 261 267 273
178 169 169 160 164 149 153 159 183 195 199 232 276 297 318 300 317 312 319 283 279 211 195 192 208 184 161 144 148 166 172 182 193 202 211 217 230 242 252 259 263 270 275
174 160 165 168 169 172 182 175 193 182 190 230 247 273 291 298 312 311 310 311 300 277 243 226 166 156 130 141 159 170 179 193 199 204 208 211 222 235 245 254 257 264 269
172 163 170 175 171 172 175 175 200 196 189 219 244 245 269 280 286 298 302 279 258 276 272 244 195 146 143 136 169 186 185 199 204 205 207 211 219 230 237 245 250 258 265
178 167 170 172 171 172 181 196 206 202 208 225 239 238 284 303 309 303 300 288 258 255 271 274 227 185 236 215 185 195 197 203 206 208 211 211 214 221 227 236 243 246 254
178 176 175 175 178 180 190 205 222 203 212 228 241 228 233 265 306 308 302 292 286 278 272 285 282 210 217 237 193 216 209 204 204 211 211 208 210 214 218 226 232 237 245
182 182 184 183 190 190 196 204 223 222 216 220 232 242 246 248 256 287 304 302 291 279 264 279 286 261 240 220 203 231 228 222 200 206 207 205 207 207 211 217 219 230 239
184 186 188 193 200 195 199 208 218 227 230 227 225 234 244 254 264 267 278 287 290 286 256 257 265 254 248 246 220 251 259 248 226 203 201 205 205 204 207 209 211 221 232
185 188 196 200 202 198 202 207 217 218 223 228 226 228 232 233 245 263 263 274 283 287 278 270 267 267 262 260 240 256 262 257 249 226 201 200 201 203 207 208 209 215 223
194 189 194 204 211 205 211 209 222 221 216 225 228 227 225 214 221 244 265 285 289 286 282 276 270 267 268 292 278 275 278 264 247 234 224 210 192 196 204 211 212 215 217
192 190 196 202 216 219 206 202 218 229 217 219 229 234 224 213 219 220 243 261 262 267 279 281 277 278 273 276 279 285 284 296 284 251 235 241 202 203 196 192 199 204 211
191 197 201 204 204 206 207 200 216 232 234 231 230 233 247 231 201 222 242 247 250 242 238 256 273 282 286 299 301 291 291 288 270 270 267 261 233 221 189 184 184 194 206
193 201 208 207 198 205 207 203 213 225 237 238 231 231 239 246 246 246 251 250 244 238 236 237 259 274 280 286 279 268 269 270 265 267 257 261 262 255 202 175 192 198 208
199 203 203 207 205 200 202 202 201 219 229 233 230 230 224 225 234 239 257 260 257 255 248 244 243 251 259 264 257 277 280 282 283 280 280 268 271 280 239 207 204 206 213
207 206 208 211 209 205 200 197 196 218 233 235 231 225 223 218 218 218 237 256 259 265 263 257 255 255 249 245 232 226 243 257 273 278 247 243 273 286 278 232 191 195 212
Height
1541 1542 1543 1544 1545 1547 1547 1548 1550 1550 1551 1552 1553 1554 1555 1556 1556 1557 1557 1557 1558 1558 1558 1559 1560 1560 1561 1561 1562 1563 1563 1564 1565 1565 1566 1567 1567 1568 1569 1569 1570 1570 1571
1541 1542 1543 1545 1546 1547 1548 1548 1550 1551 1552 1552 1553 1554 1555 1556 1556 1556 1556 1556 1557 1558 1558 1559 1559 1559 1560 1560 1561 1561 1562 1563 1563 1564 1564 1565 1566 1566 1567 1567 1568 1568 1569
1542 1543 1544 1545 1546 1547 1548 1549 1550 1551 1552 1553 1553 1554 1555 1555 1556 1556 1556 1556 1557 1557 1558 1558 1558 1559 1559 1559 1560 1560 1561 1561 1562 1562 1563 1563 1564 1564 1565 1565 1566 1566 1567
1542 1543 1544 1545 1546 1548 1548 1549 1550 1551 1552 1552 1553 1554 1554 1555 1555 1556 1556 1556 1556 1557 1557 1557 1558 1558 1558 1558 1559 1559 1560 1560 1560 1560 1561 1561 1562 1562 1562 1563 1563 1564 1564
1543 1544 1545 1545 1546 1548 1548 1549 1550 1550 1551 1552 1553 1553 1554 1554 1555 1555 1556 1556 1556 1557 1557 1557 1557 1558 1558 1558 1558 1558 1558 1559 1559 1559 1559 1559 1559 1560 1560 1560 1561 1561 1561
1543 1543 1544 1545 1546 1547 1548 1549 1549 1550 1551 1552 1553 1553 1553 1554 1555 1555 1556 1556 1557 1557 1557 1557 1557 1557 1557 1557 1557 1557 1557 1557 1557 1557 1557 1558 1557 1557 1558 1558 1558 1558 1559
1543 1543 1544 1545 1546 1546 1547 1548 1549 1549 1551 1552 1552 1553 1553 1554 1554 1555 1555 1556 1557 1557 1557 1557 1556 1556 1556 1556 1556 1556 1556 1556 1556 1556 1556 1556 1556 1555 1556 1555 1556 1556 1556
1542 1543 1543 1544 1545 1546 1547 1547 1548 1549 1550 1551 1552 1552 1553 1555 1554 1555 1555 1555 1556 1556 1556 1556 1556 1556 1555 1555 1555 1555 1555 1555 1554 1554 1554 1554 1554 1554 1553 1553 1553 1553 1554
1542 1543 1543 1544 1545 1545 1546 1547 1547 1548 1549 1550 1551 1552 1552 1553 1553 1554 1554 1554 1555 1555 1555 1556 1555 1555 1555 1554 1554 1554 1554 1554 1553 1553 1552 1552 1552 1552 1551 1551 1551 1551 1551
1541 1542 1542 1543 1544 1544 1545 1546 1546 1547 1549 1549 1551 1551 1552 1552 1553 1553 1554 1553 1554 1554 1554 1555 1555 1554 1554 1553 1553 1553 1553 1552 1551 1551 1551 1550 1550 1550 1549 1549 1549 1548 1548
1541 1541 1541 1542 1543 1543 1544 1544 1545 1546 1547 1548 1550 1551 1552 1552 1552 1552 1552 1553 1553 1553 1553 1553 1553 1553 1552 1551 1551 1551 1551 1551 1550 1549 1549 1548 1548 1547 1547 1547 1546 1546 1546
1539 1540 1541 1541 1542 1543 1543 1544 1544 1545 1546 1547 1548 1549 1550 1551 1551 1551 1551 1551 1551 1551 1551 1551 1551 1551 1551 1550 1550 1549 1549 1548 1548 1547 1547 1546 1546 1545 1545 1544 1544 1544 1543
1538 1539 1540 1540 1541 1542 1542 1543 1544 1544 1545 1546 1547 1548 1549 1549 1550 1550 1550 1550 1550 1550 1550 1550 1549 1549 1549 1548 1548 1547 1547 1546 1545 1545 1544 1544 1543 1543 1542 1542 1541 1541 1541
1537 1537 1538 1539 1540 1541 1542 1542 1543 1543 1544 1545 1546 1546 1547 1548 1549 1549 1549 1549 1549 1549 1548 1548 1548 1547 1547 1546 1546 1545 1544 1544 1543 1543 1542 1542 1541 1540 1540 1540 1539 1539 1538
1535 1535 1536 1537 1538 1539 1540 1541 1541 1542 1543 1544 1544 1545 1545 1546 1547 1547 1547 1548 1548 1547 1547 1546 1546 1545 1545 1544 1543 1542 1542 1542 1541 1541 1540 1539 1539 1538 1538 1537 1537 1536 1536
1533 1534 1535 1536 1537 1537 1538 1539 1540 1541 1542 1542 1543 1543 1543 1544 1544 1545 1545 1545 1545 1546 1545 1544 1544 1543 1542 1542 1541 1540 1540 1539 1539 1538 1538 1537 1536 1536 1535 1535 1534 1534 1533
1530 1532 1533 1534 1535 1535 1536 1537 1538 1539 1540 1540 1541 1541 1541 1542 1542 1543 1543 1543 1543 1543 1543 1542 1542 1541 1540 1540 1538 1538 1537 1536 1536 1536 1535 1534 1534 1533 1532 1532 1532 1531 1531
1528 1529 1531 1532 1532 1533 1534 1535 1536 1537 1538 1538 1539 1539 1539 1540 1540 1540 1540 1541 1541 1541 1540 1540 1539 1539 1538 1537 1536 1536 1535 1534 1534 1533 1533 1532 1531 1531 1530 1529 1529 1528 1528
1525 1527 1528 1529 1530 1531 1532 1533 1534 1535 1536 1536 1537 1537 1537 1537 1537 1537 1537 1538 1538 1538 1538 1537 1536 1536 1536 1535 1534 1534 1533 1533 1532 1531 1530 1529 1529 1528 1527 1527 1526 1525 1525
1522 1524 1525 1527 1528 1529 1529 1530 1531 1532 1533 1534 1534 1534 1534 1534 1534 1534 1535 1535 1535 1535 1535 1535 1534 1534 1533 1533 1532 1531 1531 1530 1530 1529 1527 1527 1526 1525 1525 1524 1523 1523 1522
1519 1520 1522 1523 1525 1526 1527 1527 1528 1529 1530 1531 1531 1531 1531 1531 1531 1531 1531 1531 1532 1532 1532 1532 1531 1531 1530 1530 1529 1529 1528 1527 1527 1526 1525 1524 1523 1522 1522 1521 1520 1520 1519
1516 1517 1519 1520 1522 1523 1523 1524 1525 1526 1527 1527 1528 1528 1528 1528 1528 1528 1528 1528 1529 1529 1528 1528 1528 1528 1527 1527 1526 1526 1525 1525 1524 1524 1522 1521 1520 1519 1518 1518 1518 1517 1517
1513 1515 1516 1517 1518 1519 1521 1521 1522 1523 1523 1524 1524 1524 1525 1524 1524 1524 1524 1524 1524 1525 1525 1525 1524 1524 1524 1524 1523 1523 1522 1521 1521 1520 1519 1518 1517 1516 1516 1515 1515 1514 1514
1510 1512 1513 1514 1515 1516 1517 1518 1518 1519 1520 1520 1520 1521 1521 1520 1520 1520 1520 1520 1520 1520 1521 1520 1520 1520 1520 1520 1520 1519 1518 1518 1517 1517 1517 1515 1514 1513 1513 1512 1512 1511 1511
1507 1508 1510 1511 1512 1512 1513 1514 1515 1515 1516 1516 1517 1517 1517 1516 1516 1517 1517 1516 1516 1516 1516 1516 1516 1516 1516 1516 1516 1516 1515 1515 1513 1513 1513 1512 1511 1510 1509 1509 1509 1508 1508
1504 1505 1506 1507 1508 1509 1510 1511 1511 1512 1512 1512 1513 1513 1513 1513 1513 1513 1513 1512 1512 1512 1512 1512 1512 1511 1511 1511 1511 1511 1511 1511 1510 1510 1509 1509 1508 1507 1506 1506 1506 1505 1505